TimeCDT,TemperatureF,Dew PointF,Humidity,Sea Level PressureIn,VisibilityMPH,Wind Direction,Wind SpeedMPH,Gust SpeedMPH,PrecipitationIn,Events,Conditions,WindDirDegrees,DateUTC
12:15 AM,37.4,37.4,100,30.14,5.0,North,24.2,33.4,0.04,Snow,Light Snow,10,2012-10-04 05:15:00
12:35 AM,37.4,37.4,100,30.14,6.0,North,25.3,29.9,0.11,Snow,Light Snow,10,2012-10-04 05:35:00
12:55 AM,37.4,37.4,100,30.14,5.0,North,25.3,34.5,0.22,Snow,Light Snow,10,2012-10-04 05:55:00
1:15 AM,37.4,37.4,100,30.13,5.0,North,23.0,34.5,0.04,Snow,Light Snow,360,2012-10-04 06:15:00
1:35 AM,37.4,37.4,100,30.13,6.0,North,26.5,35.7,0.16,Snow,Light Snow,360,2012-10-04 06:35:00
1:55 AM,37.4,37.4,100,30.13,5.0,North,24.2,33.4,0.22,,Partly Cloudy,10,2012-10-04 06:55:00
2:15 AM,35.6,35.6,100,30.13,5.0,North,25.3,32.2,0.05,Snow,Light Snow,360,2012-10-04 07:15:00
2:35 AM,35.6,35.6,100,30.13,4.0,North,26.5,34.5,0.16,Snow,Light Snow,360,2012-10-04 07:35:00
2:55 AM,35.6,35.6,100,30.11,4.0,North,27.6,36.8,0.25,Snow,Light Snow,360,2012-10-04 07:55:00
3:15 AM,35.6,35.6,100,30.11,5.0,North,17.3,34.5,0.05,Snow,Light Snow,350,2012-10-04 08:15:00
3:35 AM,35.6,35.6,100,30.11,5.0,North,21.9,29.9,0.09,,Scattered Clouds,350,2012-10-04 08:35:00
3:55 AM,35.6,35.6,100,30.11,5.0,North,18.4,31.1,0.17,Snow,Light Snow,350,2012-10-04 08:55:00
4:15 AM,35.6,35.6,100,30.11,5.0,North,17.3,31.1,0.03,Snow,Light Snow,350,2012-10-04 09:15:00
4:35 AM,35.6,35.6,100,30.11,6.0,NNW,21.9,29.9,0.07,Snow,Light Snow,340,2012-10-04 09:35:00
4:55 AM,35.6,35.6,100,30.11,7.0,NNW,24.2,32.2,0.11,Snow,Light Snow,340,2012-10-04 09:55:00
5:15 AM,35.6,35.6,100,30.11,8.0,NNW,18.4,29.9,0.02,Snow,Light Snow,340,2012-10-04 10:15:00
5:35 AM,35.6,35.6,100,30.11,5.0,NNW,19.6,33.4,0.08,Snow,Light Snow,340,2012-10-04 10:35:00
5:55 AM,35.6,35.6,100,30.11,5.0,North,25.3,31.1,0.15,Snow,Light Snow,350,2012-10-04 10:55:00
6:15 AM,35.6,35.6,100,30.11,4.0,NNW,20.7,34.5,0.04,Snow,Light Snow,340,2012-10-04 11:15:00
6:35 AM,35.6,35.6,100,30.11,5.0,NNW,18.4,31.1,0.09,Snow,Light Snow,340,2012-10-04 11:35:00
6:55 AM,35.6,35.6,100,30.11,8.0,NNW,23.0,29.9,0.10,,Clear,340,2012-10-04 11:55:00
7:15 AM,35.6,35.6,100,30.11,7.0,NNW,19.6,28.8,0.02,Snow,Light Snow,340,2012-10-04 12:15:00
7:35 AM,35.6,35.6,100,30.10,5.0,North,23.0,34.5,0.08,Snow,Light Snow,350,2012-10-04 12:35:00
7:55 AM,35.6,35.6,100,30.10,5.0,NNW,24.2,32.2,0.17,Snow,Light Snow,340,2012-10-04 12:55:00
8:15 AM,33.8,33.8,100,30.10,5.0,NNW,19.6,34.5,0.04,Snow,Light Snow,340,2012-10-04 13:15:00
8:35 AM,35.6,35.6,100,30.09,8.0,NNW,21.9,31.1,0.07,Snow,Light Snow,340,2012-10-04 13:35:00
8:55 AM,35.6,35.6,100,30.09,7.0,North,24.2,33.4,0.10,Snow,Light Snow,350,2012-10-04 13:55:00
9:15 AM,35.6,35.6,100,30.09,5.0,NNW,21.9,27.6,0.02,Snow,Light Snow,340,2012-10-04 14:15:00
9:35 AM,35.6,35.6,100,30.09,5.0,North,21.9,32.2,0.04,Snow,Light Snow,350,2012-10-04 14:35:00
9:55 AM,35.6,35.6,100,30.09,7.0,NNW,29.9,38.0,0.07,Snow,Light Snow,340,2012-10-04 14:55:00
10:15 AM,35.6,35.6,100,30.10,5.0,NNW,19.6,32.2,0.01,Snow,Light Snow,340,2012-10-04 15:15:00
10:35 AM,35.6,35.6,100,30.09,5.0,North,21.9,33.4,0.08,Snow,Light Snow,350,2012-10-04 15:35:00
10:55 AM,35.6,35.6,100,30.10,4.0,NNW,24.2,32.2,0.11,Snow,Light Snow,340,2012-10-04 15:55:00
11:35 AM,35.6,35.6,100,30.10,4.0,NNW,24.2,32.2,0.08,Snow,Light Snow,340,2012-10-04 16:35:00
11:55 AM,35.6,35.6,100,30.10,4.0,NNW,24.2,35.7,0.13,Snow,Light Snow,340,2012-10-04 16:55:00
12:15 PM,35.6,35.6,100,30.10,3.0,NNW,24.2,33.4,0.04,Snow,Light Snow,340,2012-10-04 17:15:00
12:35 PM,35.6,35.6,100,30.10,5.0,NNW,21.9,31.1,0.07,Snow,Light Snow,340,2012-10-04 17:35:00
12:55 PM,35.6,35.6,100,30.11,4.0,NNW,20.7,29.9,0.12,Snow,Light Snow,340,2012-10-04 17:55:00
1:15 PM,35.6,35.6,100,30.11,2.5,NNW,16.1,24.2,0.03,,Clear,330,2012-10-04 18:15:00
1:35 PM,35.6,35.6,100,30.11,2.5,NNW,17.3,24.2,0.09,,Scattered Clouds,330,2012-10-04 18:35:00
1:55 PM,35.6,35.6,100,30.11,3.0,NNW,17.3,24.2,0.12,Snow,Light Snow,330,2012-10-04 18:55:00
2:15 PM,35.6,35.6,100,30.11,3.0,NNW,17.3,27.6,0.02,Snow,Light Snow,330,2012-10-04 19:15:00
2:35 PM,35.6,35.6,100,30.11,4.0,NNW,20.7,31.1,0.06,Snow,Light Snow,330,2012-10-04 19:35:00
2:55 PM,37.4,37.4,100,30.11,5.0,NNW,24.2,34.5,0.09,,Partly Cloudy,330,2012-10-04 19:55:00
3:15 PM,37.4,37.4,100,30.11,5.0,NNW,20.7,31.1,0.01,,Partly Cloudy,330,2012-10-04 20:15:00
3:35 PM,37.4,37.4,100,30.11,4.0,NNW,19.6,31.1,0.05,Snow,Light Snow,330,2012-10-04 20:35:00
3:55 PM,37.4,37.4,100,30.12,5.0,NNW,20.7,34.5,0.08,Snow,Light Snow,330,2012-10-04 20:55:00
4:15 PM,37.4,37.4,100,30.12,7.0,NNW,21.9,33.4,0.02,,Scattered Clouds,330,2012-10-04 21:15:00
4:35 PM,37.4,37.4,100,30.12,7.0,NW,20.7,33.4,0.02,,Partly Cloudy,320,2012-10-04 21:35:00
4:55 PM,37.4,37.4,100,30.13,8.0,NW,20.7,33.4,0.04,Snow,Light Snow,320,2012-10-04 21:55:00
5:15 PM,37.4,37.4,100,30.13,10.0,NW,20.7,33.4,N/A,,Scattered Clouds,320,2012-10-04 22:15:00
5:55 PM,37.4,35.6,93,30.14,10.0,NW,25.3,34.5,N/A,,Mostly Cloudy,320,2012-10-04 22:55:00
6:15 PM,37.4,33.8,87,30.14,10.0,NNW,23.0,36.8,N/A,,Overcast,330,2012-10-04 23:15:00
6:35 PM,35.6,33.8,93,30.15,10.0,NW,23.0,31.1,N/A,,Overcast,320,2012-10-04 23:35:00
6:55 PM,35.6,33.8,93,30.15,10.0,NW,18.4,40.3,N/A,,Overcast,320,2012-10-04 23:55:00
7:15 PM,35.6,32.0,87,30.15,10.0,NW,20.7,33.4,N/A,,Overcast,320,2012-10-05 00:15:00
7:35 PM,35.6,32.0,87,30.16,10.0,NW,20.7,29.9,N/A,,Mostly Cloudy,320,2012-10-05 00:35:00
7:55 PM,35.6,32.0,87,30.16,10.0,NW,20.7,29.9,N/A,,Mostly Cloudy,320,2012-10-05 00:55:00
8:15 PM,35.6,32.0,87,30.16,10.0,NW,20.7,33.4,N/A,,Overcast,320,2012-10-05 01:15:00
8:35 PM,35.6,32.0,87,30.16,10.0,NW,20.7,32.2,N/A,,Mostly Cloudy,320,2012-10-05 01:35:00
8:55 PM,35.6,32.0,87,30.16,10.0,NW,19.6,33.4,N/A,,Overcast,320,2012-10-05 01:55:00
9:15 PM,33.8,32.0,93,30.16,10.0,NW,20.7,33.4,N/A,,Overcast,320,2012-10-05 02:15:00
9:35 PM,33.8,32.0,93,30.17,10.0,NW,24.2,32.2,N/A,,Mostly Cloudy,320,2012-10-05 02:35:00
9:55 PM,33.8,32.0,93,30.16,10.0,NW,21.9,27.6,N/A,,Mostly Cloudy,320,2012-10-05 02:55:00
10:15 PM,33.8,32.0,93,30.17,10.0,NW,20.7,32.2,N/A,,Mostly Cloudy,320,2012-10-05 03:15:00
10:35 PM,33.8,32.0,93,30.17,10.0,NW,19.6,32.2,N/A,,Mostly Cloudy,320,2012-10-05 03:35:00
10:55 PM,33.8,32.0,93,30.16,10.0,NW,21.9,32.2,N/A,,Mostly Cloudy,320,2012-10-05 03:55:00
11:15 PM,32.0,32.0,100,30.16,10.0,NW,20.7,32.2,N/A,,Overcast,320,2012-10-05 04:15:00
11:55 PM,32.0,32.0,100,30.16,10.0,NW,20.7,29.9,N/A,,Mostly Cloudy,310,2012-10-05 04:55:00